905  
ASHW40 PHFO 150110  
RWRHI  
 
WEATHER ROUNDUP FOR HAWAII  
NATIONAL WEATHER SERVICE HONOLULU HI  
300 PM HST FRI JUN 14 2024  
 
THIS IS AN AUTOMATED REPORT THAT HAS NOT BEEN QUALITY CONTROLLED.  
 
NOTE..."FAIR" INDICATES FEW OR NO CLOUDS BELOW 12,000 FEET WITH NO  
SIGNIFICANT WEATHER AND/OR S TO VISIBILITY
.  
 
* - THESE SITES REPORT LIMITED FIELDS  
# - BUOY DATA PROVIDED BY PACIFIC ISLANDS OCEAN OBSERVING SYSTEM.  
 
HIZ001-003-004-029>031-150200-  
KAUAI-NIIHAU-  
 
CITY SKY/WX TMP DP RH WIND PRES REMARKS
 
LIHUE APT LGT RAIN 79 68 69 NE12 30.08S  
PORT ALLEN* N/A 84 N/A N/A E18G28 N/A  
POIPU* N/A 84 N/A N/A NE7G16 N/A  
KOKOLE POINT* NOT AVBL  
MOLOAA DAIRY* N/A 79 68 69 E6G15 N/A  
WAIMEA HTS* NOT AVBL  
PUU OPAE* NOT AVBL  
PUU LUA* NOT AVBL  
MAKAHA RIDGE* NOT AVBL  

 
 
HIZ006-007-009>011-032>036-150200-  
OAHU-  
 
CITY SKY/WX TMP DP RH WIND PRES REMARKS
 
HONOLULU PTSUNNY 84 64 50 NE14G26 30.03F  
KALAELOA PTSUNNY 83 63 50 NE12G22 30.04S  
KANEOHE MCB MOSUNNY 87 72 60 E15G23 30.03F HX 93  
WHEELER FIELD PTSUNNY 79 63 57 NE13 30.07F  
BELLOWS* NOT AVBL  
KAHUKU* NOT AVBL  
WHEELER* NOT AVBL  
WAIANAE HARBOR NOT AVBL  
DILLINGHAM* N/A 9 39 100 CALM N/A  
KAHUKU TRN* N/A 81 68 65 E5G16 N/A  
KAWAILOA* NOT AVBL  
KII* N/A 14 75 100 CALM N/A  
MAKUA RANGE* NOT AVBL  
OAHU FOREST NW NOT AVBL  
SCHOFIELD BRK* N/A 79 63 57 E7 N/A  
SCHOFIELD S* NOT AVBL  
WAIANAE VLY* NOT AVBL  
KUAOKALA* NOT AVBL  
HONOULIUULI* NOT AVBL  
MOKUOLOE IS* N/A N/A N/A N/A MISG N/A  
PALEHUA* NOT AVBL  
WAIAWA PHB* NOT AVBL  

 
 
HIZ037>041-150200-  
MOLOKAI-  
 
CITY SKY/WX TMP DP RH WIND PRES REMARKS
 
MOLOKAI AIRPT PTSUNNY 81 65 58 E22G35 30.04S  
KALAUPAPA NOT AVBL  
MAKAPULAPAI* NOT AVBL  
MOLOKAI 1* NOT AVBL  
PUU ALII* NOT AVBL  

 
 
HIZ015-042>044-150200-  
LANAI-  
 
CITY SKY/WX TMP DP RH WIND PRES REMARKS
 
LANAI CITY CLOUDY 75 64 69 NE22 30.07F  
LANAI 1* NOT AVBL  

 
 
HIZ016-150200-  
KAHOOLAWE-  
 
CITY SKY/WX TMP DP RH WIND PRES REMARKS
 
KAHOOLAWE* NOT AVBL  
HAKIOAWA* NOT AVBL  
HONOKANAIA* NOT AVBL  
KANELOA* NOT AVBL  
KEALIALALO* NOT AVBL  
LUA MAKIKA* NOT AVBL  

 
 
HIZ017-018-022-045>050-150200-  
MAUI-  
 
CITY SKY/WX TMP DP RH WIND PRES REMARKS
 
KAHULUI PTSUNNY 83 65 54 NE24G39 30.00S  
KAPALUA-W MAUI NOT AVBL  
HANA AIRPORT PTSUNNY 81 70 69 SE5 30.09  
HANA* N/A 79 N/A N/A E8G16 N/A  
HALEAKALA SUMM N/A 54 16 22 E32 N/A VSB 0  
MAALAEA BAY* NOT AVBL  
HALEAKALA* NOT AVBL  
KAUPO GAP* NOT AVBL  
KULA 1* N/A 57 55 92 VRB3G12 N/A  

 
 
HIZ023-026-051>054-150200-  
BIG ISLAND OF HAWAII COAST AND LOWER SLOPES-  
 
CITY SKY/WX TMP DP RH WIND PRES REMARKS
 
KAILUA KONA CLOUDY 82 70 66 W10 30.00F  
HILO CLOUDY 81 68 64 E8 30.06S  
HONOKAA* NOT AVBL  
KAWAIHAE MWT* NOT AVBL  
KAWAIHAE* N/A 79 N/A N/A SW9 N/A  
SOUTH POINT* NOT AVBL  
UPOLU AIRPORT* N/A 81 N/A N/A E18G28 N/A  
KAMUELA* NOT AVBL  
HAKALAU* N/A 3 N/A N/A CALM N/A  
KALOKO-HONOKO* NOT AVBL  
PALI 2* N/A N/A N/A N/A NE18G31 N/A  
KEALAKOMO* N/A 81 63 54 E17G26 N/A  
KAUPULEHU* NOT AVBL  
KAPAPALA* N/A 74 63 69 NW12G22 N/A  
LOWER KAHUKU* NOT AVBL  
PUHE CS* NOT AVBL  
PUHO CS* NOT AVBL  
PTA KEAMUKU* N/A N/A N/A N/A NE18G26 N/A  
WAIKOLOA* NOT AVBL  

 
 
HIZ027-028-150200-  
BIG ISLAND OF HAWAII INTERIOR AND SUMMMITS-  
 
CITY SKY/WX TMP DP RH WIND PRES REMARKS
 
BRADSHAW FIELD MOSUNNY 72 55 56 SW13 30.33F  
MK VISITOR CEN N/A 61 19 20 SE17 N/A  
MAUNA KEA* N/A 45 7 21 NE15 N/A  
MAUNA LOA* NOT AVBL  
MAUNA LOA 1* NOT AVBL  
PTA KIPUKA* N/A 68 59 73 NW9G17 N/A  
PTA RANGE 17* N/A 70 59 68 W12G21 N/A  
PTA WEST* NOT AVBL  
NENE CABIN* NOT AVBL  
AHUMOA* NOT AVBL  
PTA PORTABLE* NOT AVBL  
PUU MALI* N/A 64 57 77 N5G12 N/A  

 
 
HIC003-150200-  
NORTHWEST ISLANDS-  
 
CITY SKY/WX TMP DP RH WIND PRES REMARKS
 
MIDWAY ISLAND NOT AVBL  
MIDWAY NOS* N/A 82 N/A N/A MISG 30.06  
FRENCH FRIGATE NOT AVBL  

 
 
PHZ110>124-180-150200-  
BUOY REPORTS  
 
STATION/POSITION TIME TEMP WIND PRES WAVE SWELL
 
AIR SEA DIR/SP/G HT/PER HT/DIR  
(UTC) (F) (DEG/KT/KT) (MB) (FT/S) (FT/D)  
BUOY 51101 0050 76 78 60/ 12/ 14 1019.5F 5/ 7 3/ 90  
BUOY 51100 NOT AVBL  
BUOY 51002 0050 78 80/ 16/ 17 1014.8F  
BUOY 51003 0050 78 90/ 14/ 16 1015.9F 7/16 5/170  
BUOY 51004 0050 77 78 70/ 17/ 21 N/A 8/16 7/180  
WAIMEA BAY# 0046 79 N/A 5/ 7 2/350  
MOKAPU POINT# 0056 78 N/A 6/ 7 2/140  
LANAI# 0026 79 N/A 6/17 5/180  
BARBERS PT# 0030 82 80 N/A 6/17 5/190  
PAUWELA# 0056 77 N/A 6/ 7 2/340  
HILO# 0030 78 N/A  
KANEOHE BAY# 0056 78 N/A 6/ 8 2/350  
KANEOHE BAY 2# NOT AVBL  
HANALEI# 0056 77 N/A 5/ 7 2/350  
KAHULUI HARBOR 0024 78 79 70/ 22/ 27 1016.0  
HONOLULU HARBOR 0024 80 79 60/ 6/ 10 1017.5  
PEARL HARBOR# 0030 79 N/A 5/17 3/160  
KILO NALU NOT AVBL  
HILO HARBOR 0024 78 78 80/ 5/ 8 1017.0  
MOKUOLOE 0036 79 81 90/ 7/ 15 1017.7F  
NAWILIWILI 0024 78 81 60/ 12/ 18 1018.6  
WHOTS BUOY NOT AVBL  
BUOY 51028 NOT AVBL  

 
   
.....................KEY.....................................
 
 
SKY/WX - SKY CONDITIONS/PRESENT WEATHER  
TMP - TEMPERATURE IN FAHRENHEIT  
DWPT - DEWPOINT IN FAHRENHEIT  
RH - RELATIVE HUMIDITY IN PERCENT  
WIND - DIRECTION AND SPEED /MPH FOR ISLANDS...KTS FOR BUOYS/  
PRES - MEAN SEA LEVEL PRESSURE IN INCHES OF HG  
VSB - VISIBILITY IN MILES  
HX - HEAT INDEX  
WCI - WIND CHILL INDEX  
VRB - VARIABLE WIND DIRECTION  
N/A - NOT AVAILABLE  
 
 
CLICK HERE TO GO TO PREVIOUS BULLETINS.

The Nexlab HI Page Main Text Page